This demonstration page uses our WeatherBlox Daily Observations layout. Learn more.

Hourly Observations for July 8, 2015

Temp ( °F °C ) Dew Point ( °F °C ) Humidity (%) Winds ( mph kmh ) Pressure ( in mb ) Visibility ( mi km ) Precip ( " mm )
12:15 am 00:15 Clear 56 13.6 52 11 84 84 Calm 30.06 1018 10 16.0934 0 0
12:35 am 00:35 Clear 55 13 51 10.7 86 86 SE 3 6 30.09 1019 10 16.0934 0 0
12:55 am 00:55 Clear 55 12.5 51 10.6 88 88 ESE 5 7 30.09 1019 10 16.0934 0 0
1:15 am 01:15 Clear 56 13.1 51 10.5 84 84 ESE 6 9 30.09 1019 10 16.0934 0 0
1:35 am 01:35 Clear 55 12.7 51 10.5 87 87 SE 6 9 30.09 1019 10 16.0934 0 0
1:55 am 01:55 Clear 54 12.3 50 9.9 85 85 SE 6 9 30.09 1019 10 16.0934 0 0
2:15 am 02:15 Clear 53 11.5 49 9.7 89 89 ESE 6 9 30.09 1019 10 16.0934 0 0
2:35 am 02:35 Clear 53 11.6 49 9.6 88 88 ESE 6 9 30.09 1019 10 16.0934 0 0
2:55 am 02:55 Clear 54 12 49 9.6 85 85 SE 6 9 30.09 1019 10 16.0934 0 0
3:15 am 03:15 Clear 53 11.5 49 9.4 87 87 ESE 7 11 30.06 1018 10 16.0934 0 0
3:35 am 03:35 Clear 52 11 48 9.1 88 88 ESE 7 11 30.06 1018 10 16.0934 0 0
3:55 am 03:55 Clear 52 11 48 9 88 88 SE 5 7 30.06 1018 10 16.0934 0 0
4:15 am 04:15 Clear 52 11 48 8.9 87 87 SE 5 7 30.06 1018 10 16.0934 0 0
4:35 am 04:35 Clear 51 10.8 48 8.8 88 88 SSE 3 6 30.06 1018 10 16.0934 0 0
4:55 am 04:55 Clear 50 10.1 47 8.4 89 89 ESE 5 7 30.06 1018 10 16.0934 0 0
5:15 am 05:15 Clear 51 10.3 48 8.7 90 90 SE 5 7 30.06 1018 10 16.0934 0 0
5:35 am 05:35 Clear 51 10.8 48 8.7 87 87 SE 5 7 30.06 1018 10 16.0934 0 0
5:55 am 05:55 Clear 50 10 47 8.2 89 89 SE 5 7 30.06 1018 10 16.0934 0 0
6:15 am 06:15 Sunny 51 10.6 47 8.6 88 88 SE 3 6 30.06 1018 10 16.0934 0 0
6:35 am 06:35 Sunny 51 10.7 47 8.6 87 87 Calm 30.06 1018 10 16.0934 0 0
6:55 am 06:55 Sunny 53 11.5 49 9.3 86 86 Calm 30.06 1018 10 16.0934 0 0
7:15 am 07:15 Partly Cloudy 54 12 49 9.6 85 85 SSE 3 6 30.06 1018 10 16.0934 0 0
7:35 am 07:35 Mostly Cloudy 55 13 50 10 82 82 SSE 5 7 30.06 1018 10 16.0934 0 0
7:55 am 07:55 Cloudy 56 13.5 51 10.5 82 82 Calm 30.03 1017 10 16.0934 0 0
8:15 am 08:15 Cloudy 57 14.1 52 10.9 81 81 S 3 6 30.03 1017 10 16.0934 0 0
8:35 am 08:35 Partly Cloudy 59 14.8 53 11.4 80 80 Calm 30.03 1017 10 16.0934 0 0
8:55 am 08:55 Sunny 61 15.9 53 11.7 76 76 Calm 30.03 1017 10 16.0934 0 0
9:15 am 09:15 Sunny 63 17.2 53 11.4 69 69 SW 5 7 30 1016 10 16.0934 0 0
9:35 am 09:35 Sunny 63 17.2 52 11.1 68 68 SSW 5 7 30 1016 10 16.0934 0 0
9:55 am 09:55 Sunny 64 17.5 51 10.7 65 65 SSW 3 6 30 1016 10 16.0934 0 0
10:15 am 10:15 Sunny 64 17.9 51 10.6 63 63 S 5 7 30 1016 10 16.0934 0 0
10:35 am 10:35 Sunny 65 18.6 51 10.7 60 60 SW 6 9 30 1016 10 16.0934 0 0
10:55 am 10:55 Sunny 65 18.3 51 10.6 61 61 Calm 29.97 1015 10 16.0934 0 0
11:15 am 11:15 Sunny 65 18.3 50 10.1 59 59 SW 3 6 29.97 1015 10 16.0934 0 0
11:35 am 11:35 Sunny 66 18.7 50 10.2 58 58 S 3 6 29.97 1015 10 16.0934 0 0
11:55 am 11:55 Sunny 67 19.3 50 10.2 56 56 Calm 29.97 1015 10 16.0934 0 0
12:15 pm 12:15 Sunny 67 19.7 50 10.1 54 54 S 3 6 29.94 1014 10 16.0934 0 0
12:35 pm 12:35 Partly Cloudy 68 20 50 10.1 53 53 SW 3 6 29.94 1014 10 16.0934 0 0
12:55 pm 12:55 Sunny 69 20.3 51 10.7 54 54 Calm 29.94 1014 10 16.0934 0 0
1:15 pm 13:15 Sunny 67 19.7 51 10.8 57 57 NW 5 7 29.94 1014 10 16.0934 0 0
1:35 pm 13:35 Sunny 69 20.6 52 10.9 54 54 Calm 29.94 1014 10 16.0934 0 0
1:55 pm 13:55 Sunny 70 21.3 52 11.1 52 52 Calm 29.91 1013 10 16.0934 0 0
2:15 pm 14:15 Partly Cloudy 69 20.7 52 10.9 54 54 NNE 3 6 29.91 1013 10 16.0934 0 0
2:35 pm 14:35 Sunny 71 21.9 51 10.4 48 48 NNW 6 9 29.91 1013 10 16.0934 0 0
2:55 pm 14:55 Sunny 72 22.1 50 10.2 47 47 NNE 6 9 29.91 1013 10 16.0934 0 0
3:15 pm 15:15 Partly Cloudy 72 22 51 10.4 48 48 NNE 5 7 29.91 1013 10 16.0934 0 0
3:35 pm 15:35 Sunny 71 21.7 50 10 47 47 NE 5 7 29.91 1013 10 16.0934 0 0
3:55 pm 15:55 Partly Cloudy 72 22.4 51 10.6 47 47 NE 5 7 29.91 1013 10 16.0934 0 0
4:15 pm 16:15 Partly Cloudy 71 21.9 51 10.3 48 48 N 3 6 29.91 1013 10 16.0934 0 0
4:35 pm 16:35 Partly Cloudy 71 21.9 52 11.2 51 51 N 6 9 29.91 1013 10 16.0934 0 0
4:55 pm 16:55 Sunny 71 21.5 52 11 51 51 N 5 7 29.91 1013 10 16.0934 0 0
5:15 pm 17:15 Sunny with Light Rain 71 21.6 52 10.9 51 51 NNW 5 7 29.91 1013 10 16.0934 0 0
5:35 pm 17:35 Sunny 71 21.5 52 11 51 51 NNW 5 7 29.91 1013 10 16.0934 0 0
5:55 pm 17:55 Partly Cloudy 69 20.7 53 11.7 56 56 N 10 17 29.91 1013 10 16.0934 0 0
6:15 pm 18:15 Partly Cloudy 69 20.4 54 12.4 60 60 N 14 22 29.91 1013 10 16.0934 0 0
6:35 pm 18:35 Mostly Cloudy 69 20.5 56 13.2 63 63 N 12 19 29.91 1013 10 16.0934 0 0
6:55 pm 18:55 Partly Cloudy 67 19.6 55 12.8 65 65 N 12 19 29.91 1013 10 16.0934 0 0
7:15 pm 19:15 Sunny 67 19.5 55 12.6 65 65 N 8 13 29.91 1013 10 16.0934 0 0
7:35 pm 19:35 Partly Cloudy 65 18.6 55 12.6 68 68 N 8 13 29.94 1014 10 16.0934 0 0
7:55 pm 19:55 Mostly Cloudy 65 18.5 55 12.7 69 69 N 7 11 29.94 1014 10 16.0934 0 0
8:15 pm 20:15 Mostly Cloudy 65 18.5 55 13 71 71 N 5 7 29.97 1015 10 16.0934 0 0
8:35 pm 20:35 Partly Cloudy 65 18.4 56 13.1 71 71 N 3 6 29.97 1015 10 16.0934 0 0
8:55 pm 20:55 Mostly Cloudy 64 18 55 12.8 72 72 Calm 29.97 1015 10 16.0934 0 0
9:15 pm 21:15 Cloudy 64 18 55 13 73 73 Calm 29.97 1015 10 16.0934 0 0
9:35 pm 21:35 Cloudy 64 17.6 56 13.2 76 76 Calm 29.97 1015 10 16.0934 0 0
9:55 pm 21:55 Mostly Cloudy 63 17.2 56 13.4 78 78 Calm 29.97 1015 10 16.0934 0 0
10:15 pm 22:15 Cloudy 63 17.1 57 14 82 82 Calm 29.97 1015 10 16.0934 0 0
10:35 pm 22:35 Mostly Cloudy 63 17.2 57 13.7 80 80 Calm 30 1016 10 16.0934 0 0
10:55 pm 22:55 Mostly Cloudy 63 17.2 57 14.1 82 82 Calm 30 1016 10 16.0934 0 0
11:15 pm 23:15 Mostly Cloudy 63 17 58 14.3 84 84 Calm 29.97 1015 10 16.0934 0 0
11:35 pm 23:35 Mostly Cloudy 62 16.7 57 14.1 85 85 Calm 29.97 1015 10 16.0934 0 0
11:55 pm 23:55 Partly Cloudy 62 16.5 57 13.7 84 84 Calm 30 1016 10 16.0934 0 0

Powered by AerisWeather